TimeEDT,TemperatureF,Dew PointF,Humidity,Sea Level PressureIn,VisibilityMPH,Wind Direction,Wind SpeedMPH,Gust SpeedMPH,PrecipitationIn,Events,Conditions,WindDirDegrees,DateUTC
12:15 AM,71.6,66.2,83,30.17,10.0,Calm,Calm,-,N/A,,Clear,0,2013-07-17 04:15:00
12:35 AM,69.8,64.4,83,30.17,10.0,Calm,Calm,-,N/A,,Clear,0,2013-07-17 04:35:00
12:55 AM,69.8,64.4,83,30.17,10.0,Calm,Calm,-,N/A,,Clear,0,2013-07-17 04:55:00
1:15 AM,71.6,66.2,83,30.17,10.0,Calm,Calm,-,N/A,,Clear,0,2013-07-17 05:15:00
1:35 AM,69.8,64.4,83,30.17,10.0,Calm,Calm,-,N/A,,Clear,0,2013-07-17 05:35:00
1:55 AM,69.8,64.4,83,30.17,10.0,Calm,Calm,-,N/A,,Clear,0,2013-07-17 05:55:00
2:15 AM,69.8,64.4,83,30.17,9.0,Calm,Calm,-,N/A,,Clear,0,2013-07-17 06:15:00
2:35 AM,69.8,64.4,83,30.17,10.0,Calm,Calm,-,N/A,,Clear,0,2013-07-17 06:35:00
2:55 AM,69.8,66.2,88,30.16,10.0,Calm,Calm,-,N/A,,Clear,0,2013-07-17 06:55:00
3:15 AM,69.8,64.4,83,30.16,10.0,Calm,Calm,-,N/A,,Clear,0,2013-07-17 07:15:00
3:35 AM,69.8,64.4,83,30.16,10.0,Calm,Calm,-,N/A,,Mostly Cloudy,0,2013-07-17 07:35:00
3:55 AM,69.8,66.2,88,30.16,10.0,WSW,3.5,-,N/A,,Mostly Cloudy,240,2013-07-17 07:55:00
4:15 AM,69.8,66.2,88,30.17,10.0,Calm,Calm,-,N/A,,Partly Cloudy,0,2013-07-17 08:15:00
4:35 AM,68.0,64.4,88,30.17,10.0,Calm,Calm,-,N/A,,Clear,0,2013-07-17 08:35:00
4:55 AM,69.8,64.4,83,30.17,10.0,Calm,Calm,-,N/A,,Clear,0,2013-07-17 08:55:00
5:15 AM,68.0,64.4,88,30.18,10.0,Calm,Calm,-,N/A,,Partly Cloudy,0,2013-07-17 09:15:00
5:35 AM,68.0,64.4,88,30.18,10.0,Calm,Calm,-,N/A,,Clear,0,2013-07-17 09:35:00
5:55 AM,69.8,64.4,83,30.18,10.0,Calm,Calm,-,N/A,,Clear,0,2013-07-17 09:55:00
6:15 AM,69.8,66.2,88,30.18,10.0,Calm,Calm,-,N/A,,Clear,0,2013-07-17 10:15:00
6:35 AM,69.8,64.4,83,30.18,10.0,SW,3.5,-,N/A,,Clear,230,2013-07-17 10:35:00
6:55 AM,71.6,66.2,83,30.19,10.0,Calm,Calm,-,N/A,,Clear,0,2013-07-17 10:55:00
7:15 AM,73.4,66.2,78,30.18,10.0,West,3.5,-,N/A,,Clear,270,2013-07-17 11:15:00
7:35 AM,73.4,66.2,78,30.18,10.0,Calm,Calm,-,N/A,,Clear,0,2013-07-17 11:35:00
7:55 AM,75.2,66.2,73,30.18,10.0,WSW,3.5,-,N/A,,Clear,250,2013-07-17 11:55:00
8:15 AM,77.0,66.2,69,30.19,10.0,West,4.6,-,N/A,,Clear,270,2013-07-17 12:15:00
8:35 AM,77.0,66.2,69,30.19,10.0,Calm,Calm,-,N/A,,Clear,0,2013-07-17 12:35:00
8:55 AM,77.0,66.2,69,30.18,10.0,SSW,3.5,-,N/A,,Clear,200,2013-07-17 12:55:00
9:15 AM,78.8,68.0,69,30.17,10.0,WSW,4.6,-,N/A,,Clear,250,2013-07-17 13:15:00
9:35 AM,80.6,66.2,61,30.17,10.0,West,6.9,-,N/A,,Clear,270,2013-07-17 13:35:00
9:55 AM,82.4,66.2,58,30.17,10.0,West,6.9,-,N/A,,Clear,260,2013-07-17 13:55:00
10:15 AM,82.4,66.2,58,30.16,10.0,WSW,5.8,-,N/A,,Clear,250,2013-07-17 14:15:00
10:35 AM,84.2,66.2,55,30.15,10.0,SW,6.9,-,N/A,,Clear,230,2013-07-17 14:35:00
10:55 AM,84.2,66.2,55,30.15,10.0,SW,5.8,-,N/A,,Clear,230,2013-07-17 14:55:00
11:15 AM,86.0,66.2,51,30.15,10.0,SW,5.8,-,N/A,,Clear,220,2013-07-17 15:15:00
11:35 AM,87.8,64.4,46,30.14,9.0,SW,6.9,-,N/A,,Clear,230,2013-07-17 15:35:00
11:55 AM,87.8,66.2,49,30.13,10.0,SW,9.2,-,N/A,,Clear,230,2013-07-17 15:55:00
12:15 PM,87.8,66.2,49,30.14,10.0,WSW,8.1,-,N/A,,Clear,240,2013-07-17 16:15:00
12:35 PM,87.8,66.2,49,30.12,10.0,SSW,4.6,-,N/A,,Clear,210,2013-07-17 16:35:00
12:55 PM,87.8,68.0,52,30.12,10.0,SSW,9.2,-,N/A,,Clear,210,2013-07-17 16:55:00
1:15 PM,89.6,68.0,49,30.11,10.0,WSW,10.4,-,N/A,,Partly Cloudy,250,2013-07-17 17:15:00
1:35 PM,89.6,68.0,49,30.10,10.0,SSW,8.1,-,N/A,,Partly Cloudy,200,2013-07-17 17:35:00
1:55 PM,89.6,68.0,49,30.09,10.0,WSW,6.9,16.1,N/A,,Clear,240,2013-07-17 17:55:00
2:15 PM,89.6,66.2,46,30.09,10.0,SW,9.2,-,N/A,,Clear,230,2013-07-17 18:15:00
2:35 PM,91.4,66.2,43,30.07,10.0,SSW,8.1,-,N/A,,Clear,210,2013-07-17 18:35:00
2:55 PM,91.4,64.4,41,30.06,10.0,WSW,5.8,-,N/A,,Partly Cloudy,240,2013-07-17 18:55:00
3:15 PM,91.4,64.4,41,30.05,10.0,WSW,8.1,16.1,N/A,,Partly Cloudy,250,2013-07-17 19:15:00
3:35 PM,91.4,64.4,41,30.04,10.0,WSW,4.6,-,N/A,,Clear,240,2013-07-17 19:35:00
3:55 PM,91.4,66.2,43,30.03,10.0,SW,11.5,-,N/A,,Scattered Clouds,230,2013-07-17 19:55:00
4:15 PM,91.4,66.2,43,30.03,10.0,WSW,11.5,-,N/A,,Partly Cloudy,240,2013-07-17 20:15:00
4:35 PM,91.4,66.2,43,30.02,10.0,SSW,9.2,-,N/A,,Clear,210,2013-07-17 20:35:00
4:55 PM,91.4,66.2,43,30.02,10.0,SW,10.4,-,N/A,,Mostly Cloudy,220,2013-07-17 20:55:00
5:15 PM,89.6,66.2,46,30.01,10.0,SW,9.2,-,N/A,,Mostly Cloudy,220,2013-07-17 21:15:00
5:35 PM,91.4,66.2,43,29.99,10.0,SW,11.5,-,N/A,,Mostly Cloudy,220,2013-07-17 21:35:00
5:55 PM,91.4,64.4,41,29.99,10.0,SW,10.4,-,N/A,,Partly Cloudy,220,2013-07-17 21:55:00
6:15 PM,91.4,66.2,43,29.97,10.0,SW,11.5,-,N/A,,Clear,220,2013-07-17 22:15:00
6:35 PM,89.6,66.2,46,29.98,10.0,SSW,6.9,-,N/A,,Clear,210,2013-07-17 22:35:00
6:55 PM,89.6,66.2,46,29.98,10.0,SSW,9.2,-,N/A,,Clear,210,2013-07-17 22:55:00
7:15 PM,87.8,66.2,49,29.99,10.0,SSW,6.9,-,N/A,,Clear,210,2013-07-17 23:15:00
7:35 PM,86.0,68.0,55,29.99,10.0,WSW,4.6,-,N/A,,Partly Cloudy,240,2013-07-17 23:35:00
7:55 PM,84.2,68.0,58,29.98,10.0,SW,3.5,-,N/A,,Clear,230,2013-07-17 23:55:00
8:15 PM,84.2,69.8,62,29.98,10.0,SW,4.6,-,N/A,,Clear,230,2013-07-18 00:15:00
8:35 PM,84.2,68.0,58,29.98,10.0,SW,6.9,-,N/A,,Partly Cloudy,230,2013-07-18 00:35:00
8:55 PM,84.2,66.2,55,29.98,10.0,SSW,5.8,-,N/A,,Partly Cloudy,210,2013-07-18 00:55:00
9:15 PM,82.4,68.0,62,30.00,10.0,SW,5.8,-,N/A,,Partly Cloudy,230,2013-07-18 01:15:00
9:35 PM,82.4,66.2,58,30.00,10.0,SW,8.1,-,N/A,,Partly Cloudy,230,2013-07-18 01:35:00
9:55 PM,82.4,66.2,58,30.03,10.0,North,13.8,20.7,N/A,Thunderstorm,Thunderstorm,360,2013-07-18 01:55:00
10:15 PM,75.2,68.0,78,30.06,10.0,NNW,8.1,21.9,0.01,Thunderstorm,Thunderstorm,330,2013-07-18 02:15:00
10:35 PM,73.4,69.8,88,29.99,10.0,South,5.8,-,0.01,Thunderstorm,Scattered Clouds,180,2013-07-18 02:35:00
10:55 PM,73.4,69.8,88,29.98,10.0,Calm,Calm,-,0.01,,Clear,0,2013-07-18 02:55:00
11:15 PM,73.4,69.8,88,29.99,10.0,West,3.5,-,N/A,,Clear,260,2013-07-18 03:15:00
11:35 PM,73.4,69.8,88,30.00,10.0,Calm,Calm,-,N/A,,Partly Cloudy,0,2013-07-18 03:35:00
11:55 PM,73.4,69.8,88,29.99,10.0,Calm,Calm,-,N/A,,Partly Cloudy,0,2013-07-18 03:55:00